Akron, OH

11:12 AM EDT on April 23, 2017 (GMT -0400)
Akron Fulton International

Weather History for KAKR - June, 2013

Change the Weather History Date:

Sunday, June 2, 2013

  Actual Average (KCAK) Record (KCAK)
Temperature  
Mean Temperature 70 °F -  
Max Temperature 75 °F 74 °F 95 °F (1934)
Min Temperature 64 °F 54 °F 38 °F (1966)
Cooling Degree Days 6    
Growing Degree Days 20 (Base 50)    
Moisture  
Dew Point 61 °F    
Average Humidity 77    
Maximum Humidity 97    
Minimum Humidity 51    
Precipitation  
Precipitation 1.36 in - - ()
Sea Level Pressure  
Sea Level Pressure 29.81 in    
Wind  
Wind Speed 15 mph (WSW)    
Max Wind Speed 29 mph    
Max Gust Speed 37 mph    
Visibility 8 miles    
Events Rain    
Averages and records for this station are not official NWS values.
T = Trace of Precipitation, MM = Missing Value Source: NWS Daily Summary

Daily Weather History Graph

Daily Weather History Graph

Search for Another Location

Airport or City:

Trip Planner

Search our weather history database for the weather conditions in past years. The results will help you decide how hot, cold, wet, or windy it might be!

Date:

Astronomy

Jun. 02, 2013 Rise Set
Actual Time 5:55 AM EDT 8:52 PM EDT
Civil Twilight 5:22 AM EDT 9:25 PM EDT
Nautical Twilight 4:40 AM EDT 10:07 PM EDT
Astronomical Twilight 3:52 AM EDT 10:56 PM EDT
Moon 2:24 AM EDT (6/2) 3:19 PM EDT (6/2)
Length of Visible Light 16h 03m
Length of Day
14h 57m
Waning Crescent, 31% of the Moon is Illuminated
Jun 2
Waning Crescent
Jun 8
New
Jun 16
First Quarter
Jun 23
Full
Jun 30
Last Quarter

Hourly Weather History & Observations

Time (EDT) Temp. Dew Point Humidity Pressure Visibility Wind Dir Wind Speed Gust Speed Precip Events Conditions
12:36 AM 71.6 °F 66.2 °F 83% 29.81 in 2.5 mi WSW 26.5 mph 36.8 mph 0.16 in Rain Heavy Rain
12:38 AM 69.8 °F 66.2 °F 88% 29.81 in 1.5 mi West 28.8 mph 36.8 mph 0.28 in Rain Heavy Rain
12:45 AM 66.2 °F 64.4 °F 94% 29.80 in 0.8 mi SW 15.0 mph 36.8 mph 0.60 in Rain Heavy Rain
12:49 AM 66.2 °F 64.4 °F 94% 29.80 in 1.0 mi West 12.7 mph 25.3 mph 0.72 in Rain Heavy Rain
12:54 AM 66.0 °F 64.0 °F 93% 29.77 in 1.2 mi West 16.1 mph - 0.96 in Rain Heavy Rain
1:07 AM 66.2 °F 64.4 °F 94% 29.78 in 3.0 mi West 11.5 mph 19.6 mph 0.19 in Rain Rain
1:16 AM 66.2 °F 64.4 °F 94% 29.79 in 3.0 mi SW 6.9 mph - 0.26 in Rain Heavy Rain
1:54 AM 66.0 °F 64.0 °F 93% 29.76 in 6.0 mi SSW 4.6 mph - 0.37 in Rain Light Rain
2:54 AM 66.9 °F 66.0 °F 97% 29.77 in 10.0 mi South 9.2 mph - 0.03 in   Overcast
3:49 AM 68.0 °F 66.2 °F 94% 29.79 in 10.0 mi SSW 9.2 mph - N/A   Partly Cloudy
3:54 AM 68.0 °F 66.0 °F 93% 29.76 in 10.0 mi SSW 9.2 mph - N/A   Scattered Clouds
4:05 AM 68.0 °F 66.2 °F 94% 29.78 in 10.0 mi SW 10.4 mph - N/A   Mostly Cloudy
4:54 AM 68.0 °F 64.9 °F 90% 29.76 in 10.0 mi SW 11.5 mph - N/A   Mostly Cloudy
5:54 AM 66.9 °F 63.0 °F 87% 29.77 in 10.0 mi SW 10.4 mph - N/A   Scattered Clouds
6:54 AM 66.0 °F 62.1 °F 87% 29.77 in 10.0 mi SW 9.2 mph - N/A   Partly Cloudy
7:54 AM 68.0 °F 63.0 °F 84% 29.79 in 10.0 mi SW 10.4 mph - N/A   Scattered Clouds
8:15 AM 68.0 °F 62.6 °F 83% 29.82 in 10.0 mi WSW 6.9 mph - N/A   Mostly Cloudy
8:54 AM 69.1 °F 62.1 °F 78% 29.80 in 10.0 mi WSW 10.4 mph - N/A   Overcast
9:23 AM 69.8 °F 60.8 °F 73% 29.82 in 10.0 mi WSW 9.2 mph 21.9 mph N/A   Mostly Cloudy
9:54 AM 70.0 °F 57.9 °F 65% 29.81 in 10.0 mi West 16.1 mph 25.3 mph N/A   Overcast
10:54 AM 73.0 °F 57.9 °F 59% 29.81 in 10.0 mi WSW 12.7 mph 24.2 mph N/A   Scattered Clouds
11:54 AM 75.0 °F 55.9 °F 51% 29.83 in 10.0 mi WSW 21.9 mph 27.6 mph N/A   Mostly Cloudy
12:54 PM 73.0 °F 55.9 °F 55% 29.85 in 10.0 mi West 13.8 mph 25.3 mph N/A   Mostly Cloudy
1:54 PM 75.0 °F 57.0 °F 53% 29.85 in 10.0 mi WSW 17.3 mph 24.2 mph N/A   Scattered Clouds
2:54 PM 72.0 °F 57.0 °F 59% 29.85 in 10.0 mi West 12.7 mph 21.9 mph N/A   Overcast
3:54 PM 75.0 °F 57.0 °F 53% 29.84 in 10.0 mi WSW 11.5 mph - N/A   Mostly Cloudy
4:54 PM 72.0 °F 57.0 °F 59% 29.85 in 10.0 mi WNW 10.4 mph - N/A   Overcast
5:54 PM 73.0 °F 57.9 °F 59% 29.84 in 10.0 mi West 9.2 mph - N/A   Overcast
6:54 PM 72.0 °F 57.0 °F 59% 29.83 in 10.0 mi West 11.5 mph - N/A   Mostly Cloudy
7:54 PM 71.1 °F 57.9 °F 63% 29.85 in 10.0 mi WSW 6.9 mph - N/A   Overcast
8:54 PM 68.0 °F 57.0 °F 68% 29.86 in 10.0 mi NNW 9.2 mph - 0.00 in   Overcast
9:54 PM 66.9 °F 55.0 °F 66% 29.88 in 10.0 mi NW 10.4 mph - N/A   Overcast
10:54 PM 66.0 °F 55.0 °F 68% 29.90 in 10.0 mi NW 4.6 mph - N/A   Overcast
11:54 PM 64.0 °F 55.0 °F 73% 29.90 in 10.0 mi North 11.5 mph - N/A   Overcast